413  
SXUS55 KTWC 191815  
OSOTWC  
 
WEATHER ROUNDUP FOR SOUTHEAST ARIZONA  
NATIONAL WEATHER SERVICE TUCSON AZ  
1115 AM MST TUE SEP 19 2017  
 
AZZ504>506-514-191915-  
LOCATION SKY/WX TMP DP RH WIND PRES REMARKS  
TUCSON PTSUNNY 92 58 31 SW15G24 29.98F  
DAVIS-MONTHAN MOSUNNY 90 56 31 W12 29.97F  
CHILDRENS PARK N/A N/A N/A 45 SE5 PIMA CO DEQ  
ALVERNON/22ND N/A 85 N/A N/A S5 PIMA CO DEQ  
CHERRY/GLENN N/A N/A N/A N/A N/A PIMA CO DEQ  
TANGERINE N/A 84 N/A N/A S8 PIMA CO DEQ  
CONTL RANCH N/A 88 61 40 S5 PIMA CO DEQ  
GRANT/1ST N/A 85 61 44 SE5 PIMA CO DEQ  
CRAYCROFT/22ND N/A 84 62 47 N/A PIMA CO DEQ  
GOLFLINKS/KOLB N/A 85 62 46 SW6 PIMA CO DEQ  
AJO/12TH N/A 86 63 46 S9 PIMA CO DEQ  
FAIRGROUNDS N/A 85 N/A N/A SW6 PIMA CO DEQ  
SAGUARO N/A 89 62 40 W5G11 *SABINO CYN  
SAN CARLOS N/A 85 51 31 S6G11 *SAN CARLOS  
GREEN VALLEY N/A 85 62 46 S12 PIMA CO DEQ  
HORSE CAMP CYN N/A 80 53 40 SW7G14 *ARAVAIPA CYN  
RINCON MTNS N/A 64 52 66 SW4G15 *NR MANNING CAMP  

 
 
AZZ509>511-191915-  
LOCATION SKY/WX TMP DP RH WIND PRES REMARKS  
SAFFORD SUNNY 88 47 24 NE5 29.98F  
STRAY HORSE N/A 64 43 46 SW10G21 *  
TRAIL CABIN N/A 74 49 42 W6G16 *N OF GRANVILLE  
BLACK HILLS NOT AVBL  
DRY LAKE N/A 70 49 47 SW5G15 *NATANES MTNS  
NOON CREEK N/A 77 46 33 NE8G15 *PINALENO MTNS  
COLUMBINE N/A 52 51 98 SW9G22 *PINALENO MTNS  
GUTHRIE N/A 72 45 38 SW7G15 *SW OF GUTHRIE  

 
 
AZZ502-503-513-191915-  
LOCATION SKY/WX TMP DP RH WIND PRES REMARKS  
NOGALES MOSUNNY 82 59 45 SW15 30.07F  
SELLS N/A 88 63 44 SW12G18 *  
SASABE N/A 84 62 48 S14G21 *ALTAR VLY  
HOPKINS N/A 69 58 68 W7G20 *SANTA RITA MTNS  
CARR CYN N/A 78 56 47 W5G12 *W OF HEREFORD  

 
 
AZZ507-508-512-191915-  
LOCATION SKY/WX TMP DP RH WIND PRES REMARKS  
SIERRA VISTA SUNNY 83 53 36 SW16G24 30.12F  
DOUGLAS MOSUNNY 85 56 37 SW15G23 30.08F  
EMPIRE MTNS NOT AVBL  
MULESHOE RANCH N/A 80 59 49 W5G11 *PRESERVE  
HEADQUARTERS N/A 80 56 44 W6G21 *CHIRICAHUA MTNS  

 
   
............................NOTES..........................
 
 
THIS IS AN AUTOMATED COLLECTIVE WITH MINIMAL QUALITY CONTROL.  
PIMA CO DEQ SITES HAVE NONSTANDARD WIND SENSOR HEIGHTS.  
PIMA CO DEQ SITES DO NOT REPORT WIND GUSTS.  
* INDICATES WIND SENSORS LOCATED AT 20 FEET INSTEAD OF 33 FEET.   
.............................KEY...........................
 
 
SKY/WX - SKY CONDITION/WEATHER  
TMP - TEMPERATURE IN FAHRENHEIT  
DP - DEWPOINT IN FAHRENHEIT  
RH - RELATIVE HUMIDITY IN PERCENT  
WIND - DIRECTION AND SPEED IN MILES PER HOUR (MPH)  
VRB - VARIABLE WIND DIRECTION  
PRES - MEAN SEA LEVEL PRESSURE IN INCHES OF MERCURY  
F - FALLING PRESSURE R - RISING PRESSURE  
S - STEADY PRESSURE  
VSB - VISIBILITY IN MILES  
HX - HEAT INDEX IN FAHRENHEIT  
WCI - WIND CHILL INDEX IN FAHRENHEIT  
N/A - NOT AVAILABLE  
AFB - AIR FORCE BASE  
DAVIS-MONTHAN IS DAVIS-MONTHAN AIR FORCE BASE  
CYN - CANYON  
MTNS - MOUNTAINS  
NCA - NATIONAL CONSERVATION AREA  
NR - NEAR  
VLY - VALLEY  
CONTL - CONTINENTAL  
PIMA CO DEQ - PIMA COUNTY DEPT OF ENVIRONMENTAL QUALITY  
 
CLICK HERE TO GO TO PREVIOUS BULLETINS.

The Nexlab AZ Page Main Text Page